Location: Unspecified
(0.0000°N, 0.0000°E)
Time: 18:03:01
(UTC+00:00)

Tiros 1 - All Passes

Search period start: 31 May 2016 00:00
Search period end: 10 June 2016 00:00
Orbit: 631 x 665 km, 48.4° (Epoch: 30 May)

Date Brightness Start Highest point End Pass type
(mag) Time Alt. Az. Time Alt. Az. Time Alt. Az.
31 May - 00:06:00 10° N 00:09:55 25° NE 00:13:52 10° ESE night (unlit)
31 May - 01:47:59 10° WNW 01:51:58 26° SW 01:55:59 10° S night (unlit)
31 May - 12:18:45 10° SSW 12:23:11 44° SE 12:27:35 10° ENE daylight
31 May - 14:02:53 10° W 14:05:14 14° NW 14:07:35 10° NNW daylight
01 Jun - 00:31:25 10° NW 00:36:11 84° NE 00:41:00 10° SE night (unlit)
01 Jun - 11:05:30 10° SSE 11:07:21 12° SE 11:09:12 10° ESE daylight
01 Jun - 12:44:56 10° SW 12:49:26 51° NW 12:53:55 10° NNE daylight
01 Jun - 23:16:41 10° N 23:20:25 23° NE 23:24:10 10° ESE night (unlit)
02 Jun - 00:58:20 10° WNW 01:02:28 29° SW 01:06:37 10° S night (unlit)
02 Jun - 11:29:21 10° SSW 11:33:42 39° SE 11:38:01 10° ENE daylight
02 Jun - 13:13:00 10° W 13:15:44 15° NW 13:18:28 10° NNW daylight
02 Jun - 23:41:56 10° NW 23:46:41 75° NE 23:51:29 10° SE night (unlit)
03 Jun - 10:16:40 10° SE 10:17:51 11° SE 10:19:01 10° ESE daylight
03 Jun - 11:55:23 10° SW 11:59:58 58° NW 12:04:30 10° NNE daylight
03 Jun - 22:27:24 10° N 22:30:55 20° NE 22:34:25 10° E night (unlit)
04 Jun - 00:08:43 10° WNW 00:12:58 32° SW 00:17:15 10° SSE night (unlit)
04 Jun - 10:39:57 10° SSW 10:44:13 35° SE 10:48:26 10° ENE daylight
04 Jun - 12:23:12 10° W 12:26:15 17° NW 12:29:17 10° N daylight
04 Jun - 22:52:28 10° NNW 22:57:11 67° NE 23:01:57 10° SE night (unlit)
05 Jun - 11:05:51 10° SW 11:10:29 65° NW 11:15:04 10° NNE daylight
05 Jun - 21:38:10 10° N 21:41:24 18° NE 21:44:39 10° E night (unlit)
05 Jun - 23:19:06 10° WNW 23:23:27 35° SW 23:27:51 10° SSE night (unlit)
06 Jun - 09:50:33 10° SSW 09:54:43 31° SE 09:58:51 10° ENE daylight
06 Jun - 11:33:25 10° W 11:36:45 19° NW 11:40:04 10° N daylight
06 Jun - 22:03:02 10° NNW 22:07:41 59° NE 22:12:24 10° SE night (unlit)
06 Jun - 23:48:22 10° WSW 23:49:50 11° SW 23:51:17 10° SSW night (unlit)
07 Jun - 10:16:19 10° SW 10:21:00 74° NW 10:25:36 10° NNE daylight
07 Jun - 20:48:58 10° NNE 20:51:54 16° NE 20:54:50 10° E visible
07 Jun - 22:29:30 10° WNW 22:33:56 40° SW 22:38:26 10° SSE night (unlit)
08 Jun - 09:01:11 10° S 09:05:14 28° SE 09:09:14 10° ENE daylight
08 Jun - 10:43:41 10° W 10:47:15 22° NW 10:50:48 10° N daylight
08 Jun - 21:13:36 10° NNW 21:18:11 52° NE 21:22:50 10° SE visible
08 Jun - 22:58:16 10° WSW 23:00:18 13° SW 23:02:22 10° SSW night (unlit)
09 Jun - 09:26:47 10° SW 09:31:30 83° NW 09:36:08 10° NE daylight
09 Jun - 19:59:49 10° NNE 20:02:23 14° NE 20:04:57 10° E visible
09 Jun - 21:39:57 10° WNW 21:44:26 44° SW 21:49:00 10° SSE visible
